Content
SEND FEEDBACK

Daily
Averages
Monthly
Summary
United States of America

EVERETTS, NORTH CAROLINA


Home > North America > United States > North Carolina
Elevation: 5 feet     Latitude: 35 51N     Longitude: 077 02W

WEATHER
 
SELECT A DAY
Number of Records: 349,091;   Date Range: 7/16/98 - 9/18/14
 
SHARE

PRINT THIS DATA

[ ← Previous Day ]
WEATHER ALMANAC - JANUARY 31, 2013
[ Next Day → ]
[ °C ]   °F
Weather ElementAverageHighLow
Temperature51.6 °F73 °F (12:35 am)37.6 °F (11:55 pm)
Dewpoint25.8 °F65.8 °F (1:15 am)-7.4 °F (3:15 pm)
Humidity43.6 %81 % (4:55 am)8 % (3:15 pm)
Barometer29.80 in30.05 in (11:55 pm)29.47 in (1:15 am)
Wind Speed13.4 mph23 mph (4:15 am)
Wind Gust38 mph (12:55 am)
Weather ElementAverage
Visibility9.8 mi
Wind DirectionWSW (236.8 °)

Weather ElementTotal
Precipitation---
Heating Degree Days9.7 (Base 65)
Growing Degree Days5.3 (Base 50)
Averaged from 68 records on January 31, 2013
WEATHER CONDITIONS BREAKOUT
WIND DIRECTION BREAKOUT
WEATHER BY HOUR - JANUARY 31, 2013
[ °C ]   °F
Local TimeTemperatureDewpointHumidityBarometerVisibilityWind DirectionWind SpeedGust SpeedPrecipitationEventsConditions
12:35 AM73.0 °F64.4 °F74 %29.52 in10.0 miSouth (190°)20.7 mph36.8 mphOvercast
12:55 AM73.0 °F64.9 °F76 %29.49 in10.0 miSouth (180°)21.9 mph38.0 mphOvercast
1:15 AM73.0 °F65.8 °F78 %29.47 in10.0 miSouth (190°)20.7 mph33.4 mphOvercast
2:35 AM58.1 °F52.0 °F80 %29.53 in5.0 miWest (260°)16.1 mph29.9 mphRainLight Rain
2:55 AM58.1 °F52.0 °F80 %29.49 in7.0 miWSW (250°)15.0 mph27.6 mphRainRain
3:15 AM58.1 °F52.0 °F80 %29.54 in7.0 miWSW (250°)17.3 mph25.3 mphRainRain
3:35 AM58.1 °F52.0 °F80 %29.54 in7.0 miWSW (250°)19.6 mph29.9 mphRainLight Rain
3:55 AM58.1 °F52.0 °F80 %29.54 in10.0 miSW (230°)13.8 mph24.2 mphRainRain
4:15 AM55.4 °F49.3 °F80 %29.54 in7.0 miSW (230°)23.0 mph32.2 mphLight Drizzle
4:35 AM55.2 °F49.3 °F80 %29.56 in10.0 miSW (230°)17.3 mph27.6 mphOvercast
4:55 AM54.0 °F48.2 °F81 %29.55 in10.0 miWSW (240°)17.3 mph25.3 mphMostly Cloudy
5:15 AM54.0 °F46.9 °F77 %29.58 in10.0 miWSW (240°)21.9 mph34.5 mphScattered Clouds
5:35 AM54.0 °F45.3 °F73 %29.59 in10.0 miWSW (240°)23.0 mph33.4 mphScattered Clouds
5:55 AM54.0 °F44.1 °F69 %29.61 in10.0 miWSW (240°)21.9 mph31.1 mphClear
6:15 AM53.4 °F43.2 °F68 %29.63 in10.0 miWSW (250°)20.7 mph26.5 mphScattered Clouds
6:35 AM53.2 °F42.4 °F67 %29.64 in10.0 miWSW (240°)23.0 mph31.1 mphMostly Cloudy
6:55 AM52.7 °F41.2 °F65 %29.65 in10.0 miWSW (240°)21.9 mph28.8 mphScattered Clouds
7:15 AM52.7 °F41.0 °F64 %29.66 in10.0 miWSW (250°)20.7 mph27.6 mphClear
7:35 AM52.7 °F41.4 °F65 %29.67 in10.0 miWSW (240°)19.6 mph26.5 mphClear
7:55 AM52.7 °F42.4 °F68 %29.70 in10.0 miWest (260°)13.8 mph26.5 mphRainRain
8:15 AM52.7 °F41.9 °F67 %29.72 in10.0 miWSW (250°)17.3 mph29.9 mphMostly Cloudy
8:35 AM52.7 °F39.9 °F62 %29.72 in10.0 miWSW (250°)19.6 mph26.5 mphScattered Clouds
8:55 AM52.7 °F39.9 °F62 %29.73 in10.0 miWSW (250°)19.6 mph26.5 mphMostly Cloudy
9:15 AM52.7 °F39.4 °F61 %29.75 in10.0 miWSW (250°)18.4 mph27.6 mphScattered Clouds
9:35 AM52.7 °F38.5 °F58 %29.76 in10.0 miWest (260°)10.4 mph28.8 mphMostly Cloudy
9:55 AM52.7 °F39.0 °F60 %29.77 in10.0 miWest (270°)9.2 mph17.3 mphOvercast
10:15 AM52.7 °F32.9 °F47 %29.78 in10.0 miWest (260°)13.8 mph20.7 mphScattered Clouds
10:35 AM52.7 °F31.1 °F44 %29.79 in10.0 miWest (260°)17.3 mph24.2 mphClear
10:55 AM52.7 °F25.9 °F35 %29.80 in10.0 miWest (270°)12.7 mph28.8 mphClear
11:15 AM53.1 °F21.2 °F29 %29.80 in10.0 miWSW (250°)16.1 mph28.8 mphClear
11:35 AM52.7 °F21.2 °F29 %29.81 in10.0 miWest (260°)15.0 mph27.6 mphClear
11:55 AM52.7 °F20.7 °F29 %29.82 in10.0 miWSW (250°)15.0 mph28.8 mphClear
12:15 PM52.7 °F18.0 °F25 %29.82 in10.0 miWest (260°)21.9 mph31.1 mphClear
12:35 PM52.7 °F12.9 °F21 %29.81 in10.0 miWSW (250°)19.6 mph32.2 mphClear
12:55 PM52.7 °F12.0 °F20 %29.81 in10.0 miWest (270°)13.8 mph21.9 mphClear
1:15 PM53.6 °F13.8 °F21 %29.81 in10.0 miWest (270°)16.1 mph25.3 mphClear
1:35 PM53.2 °F10.9 °F18 %29.81 in10.0 miWest (270°)12.7 mph19.6 mphClear
1:55 PM54.0 °F3.2 °F13 %29.81 in10.0 miWest (280°)12.7 mph26.5 mphClear
2:15 PM55.4 °F7.5 °F15 %29.81 in10.0 miWSW (250°)20.7 mph24.2 mphClear
2:35 PM53.1 °F-0.2 °F11 %29.82 in10.0 miWest (270°)16.1 mph24.2 mphClear
2:55 PM53.6 °F0.7 °F12 %29.83 in10.0 miWest (260°)11.5 mph24.2 mphClear
3:15 PM53.2 °F-7.4 °F8 %29.83 in10.0 miWest (270°)16.1 mph26.5 mphClear
3:35 PM52.7 °F-1.5 °F11 %29.84 in10.0 miWest (280°)16.1 mph23.0 mphClear
3:55 PM52.7 °F0.9 °F12 %29.85 in10.0 miWest (260°)12.7 mph25.3 mphClear
4:15 PM52.7 °F0.3 °F12 %29.86 in10.0 miWSW (250°)17.3 mph26.5 mphClear
4:35 PM52.7 °F-1.5 °F11 %29.88 in10.0 miWest (260°)17.3 mph26.5 mphClear
4:55 PM52.7 °F2.1 °F13 %29.89 in10.0 miWest (260°)16.1 mph21.9 mphClear
5:15 PM52.7 °F2.8 °F13 %29.90 in10.0 miWest (280°)9.2 mph20.7 mphClear
5:35 PM50.2 °F2.3 °F14 %29.91 in10.0 miWest (280°)9.2 mph20.7 mphClear
5:55 PM50.2 °F4.1 °F15 %29.92 in10.0 miWest (280°)8.1 mph18.4 mphClear
6:15 PM47.8 °F6.6 °F19 %29.93 in10.0 miWest (280°)6.9 mphClear
6:35 PM46.4 °F10.8 °F24 %29.95 in10.0 miCalmClear
6:55 PM45.1 °F14.0 °F29 %29.97 in10.0 miCalmClear
7:15 PM44.8 °F16.7 °F32 %29.98 in10.0 miWSW (250°)4.6 mphClear
7:35 PM45.1 °F13.6 °F28 %29.98 in10.0 miWSW (250°)5.8 mphClear
7:55 PM45.1 °F12.6 °F27 %29.99 in10.0 miWest (260°)5.8 mphClear
8:15 PM44.1 °F13.3 °F29 %30.00 in10.0 miWest (260°)4.6 mphClear
8:35 PM43.9 °F13.6 °F29 %30.01 in10.0 miWSW (250°)4.6 mphClear
8:55 PM42.8 °F15.1 °F33 %30.01 in10.0 miWSW (250°)4.6 mphClear
9:15 PM42.8 °F16.7 °F35 %30.01 in10.0 miWSW (250°)4.6 mphClear
9:35 PM40.6 °F17.8 °F40 %30.02 in10.0 miWSW (250°)4.6 mphClear
9:55 PM40.8 °F18.9 °F41 %30.03 in10.0 miWSW (250°)5.8 mphClear
10:15 PM42.3 °F19.8 °F41 %30.03 in10.0 miWest (260°)4.6 mphClear
10:35 PM42.8 °F18.5 °F38 %30.03 in10.0 miCalmClear
10:55 PM40.1 °F19.2 °F43 %30.04 in10.0 miWSW (250°)4.6 mphClear
11:15 PM40.1 °F19.8 °F44 %30.04 in10.0 miCalmClear
11:35 PM38.3 °F21.0 °F50 %30.04 in10.0 miSW (230°)4.6 mphClear
11:55 PM37.6 °F21.2 °F52 %30.05 in10.0 miSW (230°)3.5 mphClear
Hourly data recorded from KOCW, located miles away from Everetts, North Carolina







STORIES FROM OUR PARTNERS